Pangborn Memorial Airport
KEAT : now visible

Airfield :











YOU CAN JOIN US ON...

 
LOGIN :

Register | Disclaimer

   EN    FR    IT 

 









Legend :    VFR   Marginal VFR   IFR   Intensive IFR   Very Intensive IFR
Visi :
Ceiling :
>= 8 km
>= 3000ft
5 to 8 km
1000 to 3000 ft
1500m to 5 km
500 to 1000 ft
800 to 1500m
200 to 500 ft
< 800m
< 200 ft
Symbols :   Thunderstorms  Fog  Heavy snow  Heavy precipitations  Wind > 20 kt






- Airport Elevation : 1249 ft


KEAT - Pangborn Memorial

CURRENT METAR :
  • 081355Z AUTO 32008KT 10SM CLR M02/M06 A3012 RMK AO2 SLP209 T10221056

EXPIRED METARs :
  • 081255Z AUTO 26006KT 10SM CLR M02/M05 A3012 RMK AO2 SLP208 T10171050
  • 081155Z AUTO 28008KT 10SM CLR M02/M05 A3012 RMK AO2 SLP207 T10171050 10022 21017 58003

TAF KEAT
Valid from the 08 at 12:00 until the 09 at 12:00 UTC


081124Z 0812/0912 29007KT P6SM SCT200
FM090100 30004KT P6SM BKN150
KZSE FIR / North America



MET'MAP, your aeronautical weather chart ! - Copyright ORBIFLY December 2007 - Disclaimer

ORBIFLY MET'MAP TEAM :

Programming & Development : Alexandra Zaïnal
Concept & original design : Baudouin d'Aumeries
Assistance for programming : Marc-Olivier Méhu
Technical & hardware support : Manuel Goepfert

Contact : metmap@orbifly.com




SOURCES & CREDITS :

   NOAA       Earth
Advisory